DMC3-FM1 (40715 NORAD) Tracking and Keplerian Element Data

This shows tracking and keplerian element data for the satellite.

Feedback or suggestion? Click here.




ElementValue
Catalog40715
NameDMC3-FM1
Epoch Orbit51599
Epoch Day35.21935106
Epoch Year2025
RAAN273.0289
Inclination97.7186
Eccentricity0.0004204
Argument of Perigee247.8953
Mean Anonmoly112.1815
Mean Motion14.84708638
Decay Rate1.774E-05
L11 40715U 15032A 25035.21935106 .00001774 00000+0 21555-3 0 9999
L22 40715 97.7186 273.0289 0004204 247.8953 112.1815 14.84708638515993



Live tracking and technical data element details for DMC3-FM1 (NORAD 40715). DMC3-FM1 can be tracked NOW for your location showing map with azimuth and elevation plus other details from your city location.







IsCatalogInMostPopularTable: catalog: 40715, numindb: 406
Update: records affected: 1



GetName: 40715 DMC3-FM1

Hit Count: updated at: Thu, 22 May 2025 02:58:17 GMT